Regional Weather Roundup
Issued by NWS

Home | Current Version | Previous Version | Graphics & Text | Print | Product List | Glossary On
Versions: 1 2 3 4 5 6 7 8 9 10 11 12 13 14 15 16 17 18 19 20 21 22 23 24 25 26 27 28 29 30 31 32 33 34 35 36 37 38 39 40 41 42 43 44 45 46 47 48 49 50
000
ASUS43 KDTX 231801
RWRMI
MICHIGAN HOURLY REGIONAL WEATHER ROUNDUP
NATIONAL WEATHER SERVICE DETROIT/PONTIAC MI
200 PM EDT WED APR 23 2014

NOTE: "FAIR" INDICATES FEW OR NO CLOUDS BELOW 12,000 FEET WITH NO
SIGNIFICANT WEATHER AND/OR OBSTRUCTION TO VISIBILITY.

MIZ047>049-052>055-059>063-066>070-074>076-081>083-231900-
SOUTHEAST LOWER MICHIGAN

CITY           SKY/WX    TMP DP  RH WIND       PRES   REMARKS
ADRIAN         SUNNY     53  28  38 NE9       30.09F
6HR MIN TEMP:  36; 6HR MAX TEMP:  53;

ALMA           SUNNY     50  12  21 N9        30.11F
ANN ARBOR      SUNNY     53  24  32 N14       30.08F
BAD AXE        SUNNY     43  11  27 N15       30.11F
6HR MIN TEMP:  36; 6HR MAX TEMP:  43;

CARO           SUNNY     48  17  28 N6        30.11F
DETROIT CITY   SUNNY     53  26  35 N10       30.09S
6HR MIN TEMP:  40; 6HR MAX TEMP:  54;

DETROIT        MOSUNNY   53  27  36 N12G23    30.09F
6HR MIN TEMP:  38; 6HR MAX TEMP:  54;

FLINT          SUNNY     52  17  25 NW15      30.12S
6HR MIN TEMP:  37; 6HR MAX TEMP:  52;

GROSSE ILE     SUNNY     52  27  37 N13       30.08S
HILLSDALE      SUNNY     51  24  35 N9        30.08S
HOWELL         SUNNY     48  19  30 N8        30.10S
6HR MIN TEMP:  33; 6HR MAX TEMP:  48;


CITY           SKY/WX    TMP DP  RH WIND       PRES   REMARKS
LAMBERTVILLE   MOSUNNY   52  32  46 CALM      30.09F
LANSING        SUNNY     52  21  29 VRB7      30.12S
6HR MIN TEMP:  33; 6HR MAX TEMP:  52;

LAPEER         FAIR      48  20  33 N9G18     30.10S
MASON          SUNNY     50  22  32 NE8       30.10F
MONROE         SUNNY     50  30  46 N5G17     30.08S
MT. CLEMENS    MOSUNNY   51  28  41 N16       30.07F
6HR MIN TEMP:  38; 6HR MAX TEMP:  51;

PONTIAC        MOSUNNY   49  24  37 NW16      30.08F
6HR MIN TEMP:  36; 6HR MAX TEMP:  50;

PORT HOPE        N/A     41  26  55 N8        30.11F
6HR MIN TEMP:  37; 6HR MAX TEMP:  41;

PORT HURON     SUNNY     46  30  53 N8        30.09S
TRI CITIES     SUNNY     52  15  23 NE13G20   30.11F
6HR MIN TEMP:  36; 6HR MAX TEMP:  52;

TROY           SUNNY     50  26  39 N10       30.09F
SAGINAW HB     SUNNY     50  19  29 N5        30.11F
YPSILANTI      SUNNY     56  27  32 NW14      30.09S
6HR MIN TEMP:  40; 6HR MAX TEMP:  56;

$$
MIZ043>046-050>051-056>058-064>065-071>073-077>080-231900-
SOUTHWEST LOWER MICHIGAN

CITY           SKY/WX    TMP DP  RH WIND       PRES   REMARKS
BATTLE CREEK   SUNNY     51  22  31 NE7       30.11F
6HR MIN TEMP:  33; 6HR MAX TEMP:  52;

BENTON HARBOR  SUNNY     41  33  73 NW12G18   30.16R
6HR MIN TEMP:  34; 6HR MAX TEMP:  43;

BIG RAPIDS     SUNNY     51  18  27 N6        30.10F
6HR MIN TEMP:  32; 6HR MAX TEMP:  51;

COLDWATER      SUNNY     50  24  35 NE7       30.09F
6HR MIN TEMP:  33; 6HR MAX TEMP:  51;

FREMONT        FAIR      52  19  27 N5        30.12F
HOLLAND        SUNNY     49  30  48 NW12      30.15S
6HR MIN TEMP:  36; 6HR MAX TEMP:  53;

GRAND RAPIDS   PTSUNNY   53  21  28 VRB5      30.12F
6HR MIN TEMP:  34; 6HR MAX TEMP:  53;

IONIA          FAIR      50  22  32 N7        30.10F
KALAMAZOO      SUNNY     52  22  30 N7G16     30.12F
6HR MIN TEMP:  34; 6HR MAX TEMP:  53;

LUDINGTON      MOSUNNY   47  24  41 N12G17    30.16S
6HR MIN TEMP:  34; 6HR MAX TEMP:  48;

MARSHALL       SUNNY     51  23  34 N3        30.09F
MOUNT PLEASANT SUNNY     51  12  20 N3        30.10F
6HR MIN TEMP:  34; 6HR MAX TEMP:  52;

MUSKEGON       MOSUNNY   47  28  47 W14       30.14F
6HR MIN TEMP:  35; 6HR MAX TEMP:  51;

SOUTH HAVEN    SUNNY     45  31  56 NW13      30.15R
$$
MIZ016>042-231900-
NORTHERN LOWER MICHIGAN

CITY           SKY/WX    TMP DP  RH WIND       PRES   REMARKS
ALPENA         SUNNY     48  12  23 N14       30.12S
6HR MIN TEMP:  33; 6HR MAX TEMP:  48;

BEAVER ISLAND  SUNNY     46  18  32 W9        30.17S
6HR MIN TEMP:  32; 6HR MAX TEMP:  47;

BELLAIRE       SUNNY     46  18  33 W5        30.15S
6HR MIN TEMP:  31; 6HR MAX TEMP:  46;

CADILLAC       SUNNY     49  14  24 N9G18     30.10F
CHARLEVOIX     SUNNY     42  20  42 W10       30.20S
6HR MIN TEMP:  32; 6HR MAX TEMP:  42;

FRANKFORT      SUNNY     43  21  40 N12       30.18R
GAYLORD        SUNNY     46   6  19 VRB6      30.11F
6HR MIN TEMP:  31; 6HR MAX TEMP:  46;

GRAYLING       SUNNY     48   9  20 N10       30.11S
6HR MIN TEMP:  32; 6HR MAX TEMP:  49;

HARBOR SPRINGS SUNNY     41  24  52 SW6       30.14F
HOUGHTON LAKE  SUNNY     50   6  16 N8        30.10F
6HR MIN TEMP:  32; 6HR MAX TEMP:  50;

MANISTEE       SUNNY     43  21  42 N15G21    30.17S
OSCODA         SUNNY     47  18  30 E10       30.10S
PELLSTON       SUNNY     48  16  27 NW9G20    30.14F
6HR MIN TEMP:  32; 6HR MAX TEMP:  49;

ROGERS CITY    SUNNY     44  18  34 N13G18    30.14F
TRAVERSE CITY  MOSUNNY   44  14  29 NE10      30.16R
6HR MIN TEMP:  33; 6HR MAX TEMP:  44;

$$
MIZ007>008-015-231900-
EASTERN UPPER MICHIGAN

CITY           SKY/WX    TMP DP  RH WIND       PRES   REMARKS
KINROSS        FAIR      43  16  33 N14G21    30.13S
6HR MIN TEMP:  30; 6HR MAX TEMP:  43;

MACKINAC ISLAN SUNNY     46  18  33 N13G20    30.13F
6HR MIN TEMP:  31; 6HR MAX TEMP:  46;

NEWBERRY       FAIR      42  20  41 N12G21    30.15S
S. S. MARIE    FAIR      42  18  37 NW13      30.12F
6HR MIN TEMP:  32; 6HR MAX TEMP:  42;

MUNISING         N/A     40  27  59 NE3       30.19S
6HR MIN TEMP:  32; 6HR MAX TEMP:  40;

$$
MIZ004>006-011>014-085-231900-
CENTRAL UPPER MICHIGAN

CITY           SKY/WX    TMP DP  RH WIND       PRES   REMARKS
MANISTIQUE     FAIR      48  17  28 NW6       30.16S
6HR MIN TEMP:  29; 6HR MAX TEMP:  49;

ESCANABA       SUNNY     45  25  45 S10       30.17S
6HR MIN TEMP:  28; 6HR MAX TEMP:  48;

MENOMINEE      MOSUNNY   43  19  39 E9        30.19F
6HR MIN TEMP:  30; 6HR MAX TEMP:  43;

SAWYER-GWINN   SUNNY     45  16  31 NE6       30.16S
$$
MIZ001>003-009>011-084-231900-
WESTERN UPPER MICHIGAN

CITY           SKY/WX    TMP DP  RH WIND       PRES   REMARKS
IRON MOUNTAIN  MOSUNNY   49  16  26 CALM      30.14S
6HR MIN TEMP:  26; 6HR MAX TEMP:  50;

HOUGHTON       FAIR      45  22  40 CALM      30.14F
COPPER HARBOR    N/A     40  27  59 NE3       30.16F
6HR MIN TEMP:  33; 6HR MAX TEMP:  40;

IRONWOOD       FAIR      50  25  37 SE5       30.09F
6HR MIN TEMP:  27; 6HR MAX TEMP:  50;

$$

ABBREVIATIONS USED IN REMARKS
   TC - TEMPERATURE IN CELSIUS
  WCI - WIND CHILL INDEX
   HX - HEAT INDEX
  VSB - VISIBILITY




USA.gov is the U.S. government's official web portal to all federal, state and local government web resources and services.